M I D A S
Marine Information and Data Acquisition System
Tripno 1468 of the Zeeleeuw from 2008-04-29 07:10:44 to 2008-04-29 11:47:07
Back to CruiseResearch ActivitiesStationsMapUnderway DataData graphs

EquipmentUnitsComments
TimeDGPSUTC
LatitudeDGPSDM.mWGS84
LongitudeDGPSDM.mWGS84
SpeedMeteo Stationm/sRelative wind speed
DirectionMeteo StationdegRelative wind direction
TemperatureMeteo Stationdeg CelciusAir temperature
PressureMeteo StationPaAtmospheric pressure
HumidityMeteo Station%Relative humidity
Missing or incorrect values are displayed as -999
Metereological data collected by the RV Zeeleeuw from 2008-04-29 07:11:35 to 2008-04-29 11:57:39
                                                                                    Next 1000 lines
Time Latitude Longitude Speed Direction Temperature Pressure Humidity
2008-04-29 07:11:46 51°13.663 2°55.953 -999 -999 -999 -999 -999
2008-04-29 07:11:50 51°13.664 2°55.951 -999 -999 -999 -999 -999
2008-04-29 07:11:55 51°13.665 2°55.948 -999 -999 -999 -999 -999
2008-04-29 07:12:00 51°13.666 2°55.945 -999 -999 -999 -999 -999
2008-04-29 07:12:06 51°13.668 2°55.94 -999 -999 -999 -999 -999
2008-04-29 07:12:10 51°13.669 2°55.935 -999 -999 -999 -999 -999
2008-04-29 07:12:15 51°13.671 2°55.93 -999 -999 -999 -999 -999
2008-04-29 07:12:20 51°13.673 2°55.924 -999 -999 -999 -999 -999
2008-04-29 07:12:26 51°13.676 2°55.915 -999 -999 -999 -999 -999
2008-04-29 07:12:30 51°13.677 2°55.909 -999 -999 -999 -999 -999
2008-04-29 07:12:35 51°13.679 2°55.901 -999 -999 -999 -999 -999
2008-04-29 07:12:40 51°13.681 2°55.893 -999 -999 -999 -999 -999
2008-04-29 07:12:45 51°13.683 2°55.884 -999 -999 -999 -999 -999
2008-04-29 07:12:51 51°13.685 2°55.873 -999 -999 -999 -999 -999
2008-04-29 07:12:56 51°13.686 2°55.864 -999 -999 -999 -999 -999
2008-04-29 07:13:00 51°13.687 2°55.857 -999 -999 -999 -999 -999
2008-04-29 07:13:05 51°13.688 2°55.849 -999 -999 -999 -999 -999
2008-04-29 07:13:10 51°13.689 2°55.84 -999 -999 -999 -999 -999
2008-04-29 07:13:16 51°13.69 2°55.831 -999 -999 -999 -999 -999
2008-04-29 07:13:21 51°13.691 2°55.823 -999 -999 -999 -999 -999
2008-04-29 07:13:25 51°13.691 2°55.817 -999 -999 -999 -999 -999
2008-04-29 07:13:30 51°13.691 2°55.809 -999 -999 -999 -999 -999
2008-04-29 07:13:36 51°13.691 2°55.8 -999 -999 -999 -999 -999
2008-04-29 07:13:41 51°13.692 2°55.794 -999 -999 -999 -999 -999
2008-04-29 07:13:45 51°13.692 2°55.788 -999 -999 -999 -999 -999
2008-04-29 07:13:50 51°13.692 2°55.782 -999 -999 -999 -999 -999
2008-04-29 07:13:56 51°13.692 2°55.776 -999 -999 -999 -999 -999
2008-04-29 07:14:01 51°13.691 2°55.77 -999 -999 -999 -999 -999
2008-04-29 07:14:06 51°13.691 2°55.766 -999 -999 -999 -999 -999
2008-04-29 07:14:10 51°13.691 2°55.762 -999 -999 -999 -999 -999
2008-04-29 07:14:15 51°13.691 2°55.758 -999 -999 -999 -999 -999
2008-04-29 07:14:21 51°13.691 2°55.754 -999 -999 -999 -999 -999
2008-04-29 07:14:26 51°13.691 2°55.751 -999 -999 -999 -999 -999
2008-04-29 07:14:30 51°13.69 2°55.748 -999 -999 -999 -999 -999
2008-04-29 07:14:35 51°13.69 2°55.745 -999 -999 -999 -999 -999
2008-04-29 07:14:40 51°13.69 2°55.742 -999 -999 -999 -999 -999
2008-04-29 07:14:46 51°13.69 2°55.74 -999 -999 -999 -999 -999
2008-04-29 07:14:50 51°13.69 2°55.738 -999 -999 -999 -999 -999
2008-04-29 07:14:55 51°13.689 2°55.737 -999 -999 -999 -999 -999
2008-04-29 07:15:00 51°13.69 2°55.735 -999 -999 -999 -999 -999
2008-04-29 07:15:05 51°13.69 2°55.734 -999 -999 -999 -999 -999
2008-04-29 07:15:10 51°13.69 2°55.734 -999 -999 -999 -999 -999
2008-04-29 07:15:15 51°13.691 2°55.734 -999 -999 -999 -999 -999
2008-04-29 07:15:20 51°13.692 2°55.734 -999 -999 -999 -999 -999
2008-04-29 07:15:25 51°13.693 2°55.734 -999 -999 -999 -999 -999
2008-04-29 07:15:30 51°13.694 2°55.734 -999 -999 -999 -999 -999
2008-04-29 07:15:35 51°13.696 2°55.734 -999 -999 -999 -999 -999
2008-04-29 07:15:40 51°13.698 2°55.735 -999 -999 -999 -999 -999
2008-04-29 07:15:45 51°13.701 2°55.735 -999 -999 -999 -999 -999
2008-04-29 07:15:50 51°13.704 2°55.735 -999 -999 -999 -999 -999
2008-04-29 07:15:55 51°13.708 2°55.733 -999 -999 -999 -999 -999
2008-04-29 07:16:00 51°13.713 2°55.731 -999 -999 -999 -999 -999
2008-04-29 07:16:06 51°13.719 2°55.728 -999 -999 -999 -999 -999
2008-04-29 07:16:10 51°13.723 2°55.725 -999 -999 -999 -999 -999
2008-04-29 07:16:15 51°13.729 2°55.72 -999 -999 -999 -999 -999
2008-04-29 07:16:20 51°13.735 2°55.716 -999 -999 -999 -999 -999
2008-04-29 07:16:26 51°13.743 2°55.71 -999 -999 -999 -999 -999
2008-04-29 07:16:30 51°13.749 2°55.706 -999 -999 -999 -999 -999
2008-04-29 07:16:35 51°13.756 2°55.7 -999 -999 -999 -999 -999
2008-04-29 07:16:41 51°13.765 2°55.694 -999 -999 -999 -999 -999
2008-04-29 07:16:45 51°13.771 2°55.689 -999 -999 -999 -999 -999
2008-04-29 07:16:50 51°13.779 2°55.682 -999 -999 -999 -999 -999
2008-04-29 07:16:55 51°13.787 2°55.676 -999 -999 -999 -999 -999
2008-04-29 07:17:00 51°13.795 2°55.67 -999 -999 -999 -999 -999
2008-04-29 07:17:06 51°13.805 2°55.662 -999 -999 -999 -999 -999
2008-04-29 07:17:11 51°13.813 2°55.656 -999 -999 -999 -999 -999
2008-04-29 07:17:15 51°13.819 2°55.652 -999 -999 -999 -999 -999
2008-04-29 07:17:20 51°13.827 2°55.646 -999 -999 -999 -999 -999
2008-04-29 07:17:25 51°13.836 2°55.64 -999 -999 -999 -999 -999
2008-04-29 07:17:30 51°13.843 2°55.633 -999 -999 -999 -999 -999
2008-04-29 07:17:35 51°13.851 2°55.626 -999 -999 -999 -999 -999
2008-04-29 07:17:40 51°13.859 2°55.62 -999 -999 -999 -999 -999
2008-04-29 07:17:45 51°13.867 2°55.613 -999 -999 -999 -999 -999
2008-04-29 07:17:50 51°13.875 2°55.606 -999 -999 -999 -999 -999
2008-04-29 07:17:56 51°13.884 2°55.599 -999 -999 -999 -999 -999
2008-04-29 07:18:01 51°13.893 2°55.593 -999 -999 -999 -999 -999
2008-04-29 07:18:05 51°13.899 2°55.588 -999 -999 -999 -999 -999
2008-04-29 07:18:10 51°13.907 2°55.582 -999 -999 -999 -999 -999
2008-04-29 07:18:16 51°13.916 2°55.575 -999 -999 -999 -999 -999
2008-04-29 07:18:21 51°13.924 2°55.57 -999 -999 -999 -999 -999
2008-04-29 07:18:25 51°13.93 2°55.565 -999 -999 -999 -999 -999
2008-04-29 07:18:30 51°13.937 2°55.559 -999 -999 -999 -999 -999
2008-04-29 07:18:35 51°13.945 2°55.553 -999 -999 -999 -999 -999
2008-04-29 07:18:41 51°13.953 2°55.547 -999 -999 -999 -999 -999
2008-04-29 07:18:45 51°13.959 2°55.542 -999 -999 -999 -999 -999
2008-04-29 07:18:50 51°13.967 2°55.537 -999 -999 -999 -999 -999
2008-04-29 07:18:55 51°13.974 2°55.531 -999 -999 -999 -999 -999
2008-04-29 07:19:01 51°13.983 2°55.525 -999 -999 -999 -999 -999
2008-04-29 07:19:06 51°13.99 2°55.519 -999 -999 -999 -999 -999
2008-04-29 07:19:10 51°13.996 2°55.515 -999 -999 -999 -999 -999
2008-04-29 07:19:16 51°14.005 2°55.508 -999 -999 -999 -999 -999
2008-04-29 07:19:20 51°14.01 2°55.504 -999 -999 -999 -999 -999
2008-04-29 07:19:26 51°14.019 2°55.497 -999 -999 -999 -999 -999
2008-04-29 07:19:30 51°14.024 2°55.493 -999 -999 -999 -999 -999
2008-04-29 07:19:35 51°14.031 2°55.488 -999 -999 -999 -999 -999
2008-04-29 07:19:40 51°14.039 2°55.482 -999 -999 -999 -999 -999
2008-04-29 07:19:45 51°14.046 2°55.477 -999 -999 -999 -999 -999
2008-04-29 07:19:51 51°14.054 2°55.47 -999 -999 -999 -999 -999
2008-04-29 07:19:55 51°14.06 2°55.465 -999 -999 -999 -999 -999
2008-04-29 07:20:00 51°14.067 2°55.46 -999 -999 -999 -999 -999
2008-04-29 07:20:05 51°14.074 2°55.454 -999 -999 -999 -999 -999
2008-04-29 07:20:11 51°14.083 2°55.448 -999 -999 -999 -999 -999
2008-04-29 07:20:15 51°14.088 2°55.443 -999 -999 -999 -999 -999
2008-04-29 07:20:21 51°14.096 2°55.436 -999 -999 -999 -999 -999
2008-04-29 07:20:25 51°14.102 2°55.431 -999 -999 -999 -999 -999
2008-04-29 07:20:30 51°14.109 2°55.425 -999 -999 -999 -999 -999
2008-04-29 07:20:36 51°14.118 2°55.418 -999 -999 -999 -999 -999
2008-04-29 07:20:41 51°14.125 2°55.413 -999 -999 -999 -999 -999
2008-04-29 07:20:45 51°14.131 2°55.408 -999 -999 -999 -999 -999
2008-04-29 07:20:50 51°14.138 2°55.401 -999 -999 -999 -999 -999
2008-04-29 07:20:55 51°14.147 2°55.394 -999 -999 -999 -999 -999
2008-04-29 07:21:01 51°14.157 2°55.385 -999 -999 -999 -999 -999
2008-04-29 07:21:06 51°14.166 2°55.377 -999 -999 -999 -999 -999
2008-04-29 07:21:10 51°14.174 2°55.37 -999 -999 -999 -999 -999
2008-04-29 07:21:15 51°14.183 2°55.361 -999 -999 -999 -999 -999
2008-04-29 07:21:20 51°14.193 2°55.351 -999 -999 -999 -999 -999
2008-04-29 07:21:26 51°14.204 2°55.339 -999 -999 -999 -999 -999
2008-04-29 07:21:31 51°14.214 2°55.329 -999 -999 -999 -999 -999
2008-04-29 07:21:35 51°14.222 2°55.322 -999 -999 -999 -999 -999
2008-04-29 07:21:40 51°14.232 2°55.312 -999 -999 -999 -999 -999
2008-04-29 07:21:46 51°14.242 2°55.298 -999 -999 -999 -999 -999
2008-04-29 07:21:50 51°14.249 2°55.288 -999 -999 -999 -999 -999
2008-04-29 07:21:55 51°14.257 2°55.275 -999 -999 -999 -999 -999
2008-04-29 07:22:00 51°14.264 2°55.262 -999 -999 -999 -999 -999
2008-04-29 07:22:05 51°14.272 2°55.248 -999 -999 -999 -999 -999
2008-04-29 07:22:10 51°14.279 2°55.234 -999 -999 -999 -999 -999
2008-04-29 07:22:15 51°14.286 2°55.221 -999 -999 -999 -999 -999
2008-04-29 07:22:20 51°14.293 2°55.206 -999 -999 -999 -999 -999
2008-04-29 07:22:25 51°14.3 2°55.192 -999 -999 -999 -999 -999
2008-04-29 07:22:30 51°14.307 2°55.177 -999 -999 -999 -999 -999
2008-04-29 07:22:35 51°14.314 2°55.163 -999 -999 -999 -999 -999
2008-04-29 07:22:40 51°14.321 2°55.148 -999 -999 -999 -999 -999
2008-04-29 07:22:46 51°14.329 2°55.131 -999 -999 -999 -999 -999
2008-04-29 07:22:50 51°14.335 2°55.119 -999 -999 -999 -999 -999
2008-04-29 07:22:55 51°14.343 2°55.103 -999 -999 -999 -999 -999
2008-04-29 07:23:00 51°14.35 2°55.088 -999 -999 -999 -999 -999
2008-04-29 07:23:05 51°14.358 2°55.072 -999 -999 -999 -999 -999
2008-04-29 07:23:10 51°14.367 2°55.056 -999 -999 -999 -999 -999
2008-04-29 07:23:15 51°14.375 2°55.039 -999 -999 -999 -999 -999
2008-04-29 07:23:21 51°14.386 2°55.018 -999 -999 -999 -999 -999
2008-04-29 07:23:26 51°14.395 2°55.001 -999 -999 -999 -999 -999
2008-04-29 07:23:30 51°14.402 2°54.986 -999 -999 -999 -999 -999
2008-04-29 07:23:35 51°14.411 2°54.967 -999 -999 -999 -999 -999
2008-04-29 07:23:40 51°14.42 2°54.948 -999 -999 -999 -999 -999
2008-04-29 07:23:46 51°14.431 2°54.924 -999 -999 -999 -999 -999
2008-04-29 07:23:50 51°14.438 2°54.908 -999 -999 -999 -999 -999
2008-04-29 07:23:55 51°14.447 2°54.888 -999 -999 -999 -999 -999
2008-04-29 07:24:00 51°14.457 2°54.868 -999 -999 -999 -999 -999
2008-04-29 07:24:05 51°14.466 2°54.847 -999 -999 -999 -999 -999
2008-04-29 07:24:10 51°14.475 2°54.827 -999 -999 -999 -999 -999
2008-04-29 07:24:15 51°14.485 2°54.807 -999 -999 -999 -999 -999
2008-04-29 07:24:20 51°14.494 2°54.786 -999 -999 -999 -999 -999
2008-04-29 07:24:25 51°14.503 2°54.765 -999 -999 -999 -999 -999
2008-04-29 07:24:30 51°14.512 2°54.743 -999 -999 -999 -999 -999
2008-04-29 07:24:35 51°14.521 2°54.721 -999 -999 -999 -999 -999
2008-04-29 07:24:40 51°14.53 2°54.699 -999 -999 -999 -999 -999
2008-04-29 07:24:45 51°14.538 2°54.677 -999 -999 -999 -999 -999
2008-04-29 07:24:50 51°14.546 2°54.655 -999 -999 -999 -999 -999
2008-04-29 07:24:55 51°14.555 2°54.632 -999 -999 -999 -999 -999
2008-04-29 07:25:00 51°14.563 2°54.61 -999 -999 -999 -999 -999
2008-04-29 07:25:05 51°14.57 2°54.586 -999 -999 -999 -999 -999
2008-04-29 07:25:10 51°14.577 2°54.563 -999 -999 -999 -999 -999
2008-04-29 07:25:15 51°14.585 2°54.54 -999 -999 -999 -999 -999
2008-04-29 07:25:20 51°14.592 2°54.516 -999 -999 -999 -999 -999
2008-04-29 07:25:25 51°14.6 2°54.493 -999 -999 -999 -999 -999
2008-04-29 07:25:30 51°14.607 2°54.469 -999 -999 -999 -999 -999
2008-04-29 07:25:35 51°14.614 2°54.445 -999 -999 -999 -999 -999
2008-04-29 07:25:40 51°14.621 2°54.421 -999 -999 -999 -999 -999
2008-04-29 07:25:45 51°14.626 2°54.396 -999 -999 -999 -999 -999
2008-04-29 07:25:50 51°14.632 2°54.371 -999 -999 -999 -999 -999
2008-04-29 07:25:55 51°14.638 2°54.347 -999 -999 -999 -999 -999
2008-04-29 07:26:00 51°14.641 2°54.321 -999 -999 -999 -999 -999
2008-04-29 07:26:05 51°14.646 2°54.296 -999 -999 -999 -999 -999
2008-04-29 07:26:10 51°14.649 2°54.27 -999 -999 -999 -999 -999
2008-04-29 07:26:15 51°14.652 2°54.245 -999 -999 -999 -999 -999
2008-04-29 07:26:20 51°14.655 2°54.219 -999 -999 -999 -999 -999
2008-04-29 07:26:25 51°14.657 2°54.193 -999 -999 -999 -999 -999
2008-04-29 07:26:30 51°14.66 2°54.168 -999 -999 -999 -999 -999
2008-04-29 07:26:35 51°14.662 2°54.142 -999 -999 -999 -999 -999
2008-04-29 07:26:40 51°14.664 2°54.116 -999 -999 -999 -999 -999
2008-04-29 07:26:45 51°14.667 2°54.091 -999 -999 -999 -999 -999
2008-04-29 07:26:50 51°14.669 2°54.065 -999 -999 -999 -999 -999
2008-04-29 07:26:55 51°14.672 2°54.039 -999 -999 -999 -999 -999
2008-04-29 07:27:00 51°14.675 2°54.014 -999 -999 -999 -999 -999
2008-04-29 07:27:05 51°14.678 2°53.988 -999 -999 -999 -999 -999
2008-04-29 07:27:10 51°14.681 2°53.963 -999 -999 -999 -999 -999
2008-04-29 07:27:15 51°14.685 2°53.937 -999 -999 -999 -999 -999
2008-04-29 07:27:20 51°14.689 2°53.912 -999 -999 -999 -999 -999
2008-04-29 07:27:25 51°14.693 2°53.886 -999 -999 -999 -999 -999
2008-04-29 07:27:30 51°14.697 2°53.861 -999 -999 -999 -999 -999
2008-04-29 07:27:35 51°14.702 2°53.835 -999 -999 -999 -999 -999
2008-04-29 07:27:40 51°14.706 2°53.81 -999 -999 -999 -999 -999
2008-04-29 07:27:45 51°14.71 2°53.785 -999 -999 -999 -999 -999
2008-04-29 07:27:50 51°14.715 2°53.759 -999 -999 -999 -999 -999
2008-04-29 07:27:55 51°14.719 2°53.734 -999 -999 -999 -999 -999
2008-04-29 07:28:00 51°14.724 2°53.709 -999 -999 -999 -999 -999
2008-04-29 07:28:05 51°14.728 2°53.683 -999 -999 -999 -999 -999
2008-04-29 07:28:10 51°14.733 2°53.658 -999 -999 -999 -999 -999
2008-04-29 07:28:15 51°14.738 2°53.633 -999 -999 -999 -999 -999
2008-04-29 07:28:20 51°14.742 2°53.607 -999 -999 -999 -999 -999
2008-04-29 07:28:25 51°14.747 2°53.581 -999 -999 -999 -999 -999
2008-04-29 07:28:30 51°14.751 2°53.556 -999 -999 -999 -999 -999
2008-04-29 07:28:35 51°14.756 2°53.53 -999 -999 -999 -999 -999
2008-04-29 07:28:40 51°14.76 2°53.504 -999 -999 -999 -999 -999
2008-04-29 07:28:45 51°14.765 2°53.478 -999 -999 -999 -999 -999
2008-04-29 07:28:50 51°14.769 2°53.452 -999 -999 -999 -999 -999
2008-04-29 07:28:55 51°14.774 2°53.426 -999 -999 -999 -999 -999
2008-04-29 07:29:00 51°14.779 2°53.4 -999 -999 -999 -999 -999
2008-04-29 07:29:05 51°14.784 2°53.374 -999 -999 -999 -999 -999
2008-04-29 07:29:10 51°14.788 2°53.348 -999 -999 -999 -999 -999
2008-04-29 07:29:15 51°14.792 2°53.322 -999 -999 -999 -999 -999
2008-04-29 07:29:20 51°14.796 2°53.295 -999 -999 -999 -999 -999
2008-04-29 07:29:25 51°14.8 2°53.269 -999 -999 -999 -999 -999
2008-04-29 07:29:30 51°14.803 2°53.243 -999 -999 -999 -999 -999
2008-04-29 07:29:35 51°14.807 2°53.216 -999 -999 -999 -999 -999
2008-04-29 07:29:40 51°14.811 2°53.19 -999 -999 -999 -999 -999
2008-04-29 07:29:45 51°14.815 2°53.164 -999 -999 -999 -999 -999
2008-04-29 07:29:50 51°14.819 2°53.138 -999 -999 -999 -999 -999
2008-04-29 07:29:55 51°14.823 2°53.112 -999 -999 -999 -999 -999
2008-04-29 07:30:00 51°14.827 2°53.085 -999 -999 -999 -999 -999
2008-04-29 07:30:05 51°14.831 2°53.059 -999 -999 -999 -999 -999
2008-04-29 07:30:10 51°14.835 2°53.033 -999 -999 -999 -999 -999
2008-04-29 07:30:15 51°14.839 2°53.007 -999 -999 -999 -999 -999
2008-04-29 07:30:20 51°14.843 2°52.981 -999 -999 -999 -999 -999
2008-04-29 07:30:25 51°14.847 2°52.955 -999 -999 -999 -999 -999
2008-04-29 07:30:30 51°14.851 2°52.929 -999 -999 -999 -999 -999
2008-04-29 07:30:35 51°14.855 2°52.903 -999 -999 -999 -999 -999
2008-04-29 07:30:40 51°14.859 2°52.877 -999 -999 -999 -999 -999
2008-04-29 07:30:45 51°14.864 2°52.851 -999 -999 -999 -999 -999
2008-04-29 07:30:50 51°14.868 2°52.825 -999 -999 -999 -999 -999
2008-04-29 07:30:55 51°14.872 2°52.799 -999 -999 -999 -999 -999
2008-04-29 07:31:00 51°14.876 2°52.773 -999 -999 -999 -999 -999
2008-04-29 07:31:05 51°14.88 2°52.747 -999 -999 -999 -999 -999
2008-04-29 07:31:10 51°14.885 2°52.722 -999 -999 -999 -999 -999
2008-04-29 07:31:15 51°14.889 2°52.696 -999 -999 -999 -999 -999
2008-04-29 07:31:20 51°14.894 2°52.67 -999 -999 -999 -999 -999
2008-04-29 07:31:25 51°14.898 2°52.644 -999 -999 -999 -999 -999
2008-04-29 07:31:30 51°14.902 2°52.618 -999 -999 -999 -999 -999
2008-04-29 07:31:35 51°14.907 2°52.593 -999 -999 -999 -999 -999
2008-04-29 07:31:40 51°14.911 2°52.567 -999 -999 -999 -999 -999
2008-04-29 07:31:45 51°14.915 2°52.541 -999 -999 -999 -999 -999
2008-04-29 07:31:50 51°14.919 2°52.515 -999 -999 -999 -999 -999
2008-04-29 07:31:55 51°14.924 2°52.49 -999 -999 -999 -999 -999
2008-04-29 07:32:00 51°14.928 2°52.464 -999 -999 -999 -999 -999
2008-04-29 07:32:05 51°14.933 2°52.439 -999 -999 -999 -999 -999
2008-04-29 07:32:10 51°14.937 2°52.413 -999 -999 -999 -999 -999
2008-04-29 07:32:15 51°14.942 2°52.388 -999 -999 -999 -999 -999
2008-04-29 07:32:20 51°14.946 2°52.362 -999 -999 -999 -999 -999
2008-04-29 07:32:25 51°14.951 2°52.336 -999 -999 -999 -999 -999
2008-04-29 07:32:30 51°14.955 2°52.311 -999 -999 -999 -999 -999
2008-04-29 07:32:35 51°14.959 2°52.285 -999 -999 -999 -999 -999
2008-04-29 07:32:40 51°14.964 2°52.259 -999 -999 -999 -999 -999
2008-04-29 07:32:45 51°14.968 2°52.234 -999 -999 -999 -999 -999
2008-04-29 07:32:50 51°14.973 2°52.208 -999 -999 -999 -999 -999
2008-04-29 07:32:55 51°14.978 2°52.183 -999 -999 -999 -999 -999
2008-04-29 07:33:00 51°14.982 2°52.157 -999 -999 -999 -999 -999
2008-04-29 07:33:05 51°14.987 2°52.132 -999 -999 -999 -999 -999
2008-04-29 07:33:10 51°14.992 2°52.106 -999 -999 -999 -999 -999
2008-04-29 07:33:15 51°14.996 2°52.08 -999 -999 -999 -999 -999
2008-04-29 07:33:20 51°15.001 2°52.055 -999 -999 -999 -999 -999
2008-04-29 07:33:25 51°15.005 2°52.029 -999 -999 -999 -999 -999
2008-04-29 07:33:30 51°15.01 2°52.004 -999 -999 -999 -999 -999
2008-04-29 07:33:35 51°15.014 2°51.978 -999 -999 -999 -999 -999
2008-04-29 07:33:40 51°15.018 2°51.953 -999 -999 -999 -999 -999
2008-04-29 07:33:45 51°15.023 2°51.927 -999 -999 -999 -999 -999
2008-04-29 07:33:50 51°15.027 2°51.902 -999 -999 -999 -999 -999
2008-04-29 07:33:55 51°15.031 2°51.876 -999 -999 -999 -999 -999
2008-04-29 07:34:00 51°15.035 2°51.85 -999 -999 -999 -999 -999
2008-04-29 07:34:05 51°15.04 2°51.825 -999 -999 -999 -999 -999
2008-04-29 07:34:10 51°15.044 2°51.799 -999 -999 -999 -999 -999
2008-04-29 07:34:15 51°15.049 2°51.773 -999 -999 -999 -999 -999
2008-04-29 07:34:20 51°15.054 2°51.748 -999 -999 -999 -999 -999
2008-04-29 07:34:25 51°15.058 2°51.722 -999 -999 -999 -999 -999
2008-04-29 07:34:30 51°15.063 2°51.696 -999 -999 -999 -999 -999
2008-04-29 07:34:35 51°15.067 2°51.671 -999 -999 -999 -999 -999
2008-04-29 07:34:40 51°15.072 2°51.645 -999 -999 -999 -999 -999
2008-04-29 07:34:45 51°15.076 2°51.619 -999 -999 -999 -999 -999
2008-04-29 07:34:50 51°15.081 2°51.593 -999 -999 -999 -999 -999
2008-04-29 07:34:54 51°15.084 2°51.573 -999 -999 -999 -999 -999
2008-04-29 07:35:00 51°15.09 2°51.542 -999 -999 -999 -999 -999
2008-04-29 07:35:05 51°15.095 2°51.516 -999 -999 -999 -999 -999
2008-04-29 07:35:10 51°15.1 2°51.491 -999 -999 -999 -999 -999
2008-04-29 07:35:14 51°15.103 2°51.47 -999 -999 -999 -999 -999
2008-04-29 07:35:19 51°15.108 2°51.445 -999 -999 -999 -999 -999
2008-04-29 07:35:25 51°15.113 2°51.414 -999 -999 -999 -999 -999
2008-04-29 07:35:30 51°15.118 2°51.389 -999 -999 -999 -999 -999
2008-04-29 07:35:34 51°15.122 2°51.368 -999 -999 -999 -999 -999
2008-04-29 07:35:39 51°15.126 2°51.343 -999 -999 -999 -999 -999
2008-04-29 07:35:45 51°15.132 2°51.312 -999 -999 -999 -999 -999
2008-04-29 07:35:50 51°15.136 2°51.287 -999 -999 -999 -999 -999
2008-04-29 07:35:54 51°15.14 2°51.267 -999 -999 -999 -999 -999
2008-04-29 07:35:59 51°15.145 2°51.241 -999 -999 -999 -999 -999
2008-04-29 07:36:04 51°15.149 2°51.216 -999 -999 -999 -999 -999
2008-04-29 07:36:10 51°15.155 2°51.185 -999 -999 -999 -999 -999
2008-04-29 07:36:15 51°15.16 2°51.16 -999 -999 -999 -999 -999
2008-04-29 07:36:19 51°15.163 2°51.14 -999 -999 -999 -999 -999
2008-04-29 07:36:25 51°15.169 2°51.109 -999 -999 -999 -999 -999
2008-04-29 07:36:30 51°15.174 2°51.084 -999 -999 -999 -999 -999
2008-04-29 07:36:35 51°15.178 2°51.059 -999 -999 -999 -999 -999
2008-04-29 07:36:40 51°15.183 2°51.033 -999 -999 -999 -999 -999
2008-04-29 07:36:45 51°15.187 2°51.008 -999 -999 -999 -999 -999
2008-04-29 07:36:50 51°15.192 2°50.982 -999 -999 -999 -999 -999
2008-04-29 07:36:54 51°15.196 2°50.962 -999 -999 -999 -999 -999
2008-04-29 07:37:00 51°15.201 2°50.932 -999 -999 -999 -999 -999
2008-04-29 07:37:05 51°15.206 2°50.906 -999 -999 -999 -999 -999
2008-04-29 07:37:10 51°15.211 2°50.881 -999 -999 -999 -999 -999
2008-04-29 07:37:14 51°15.214 2°50.861 -999 -999 -999 -999 -999
2008-04-29 07:37:20 51°15.22 2°50.831 -999 -999 -999 -999 -999
2008-04-29 07:37:25 51°15.224 2°50.805 -999 -999 -999 -999 -999
2008-04-29 07:37:30 51°15.229 2°50.78 -999 -999 -999 -999 -999
2008-04-29 07:37:34 51°15.233 2°50.76 -999 -999 -999 -999 -999
2008-04-29 07:37:39 51°15.238 2°50.735 -999 -999 -999 -999 -999
2008-04-29 07:37:45 51°15.244 2°50.704 -999 -999 -999 -999 -999
2008-04-29 07:37:50 51°15.249 2°50.679 -999 -999 -999 -999 -999
2008-04-29 07:37:54 51°15.254 2°50.659 -999 -999 -999 -999 -999
2008-04-29 07:37:59 51°15.259 2°50.634 -999 -999 -999 -999 -999
2008-04-29 07:38:04 51°15.265 2°50.61 -999 -999 -999 -999 -999
2008-04-29 07:38:10 51°15.272 2°50.58 -999 -999 -999 -999 -999
2008-04-29 07:38:15 51°15.279 2°50.556 -999 -999 -999 -999 -999
2008-04-29 07:38:19 51°15.284 2°50.536 -999 -999 -999 -999 -999
2008-04-29 07:38:25 51°15.292 2°50.507 -999 -999 -999 -999 -999
2008-04-29 07:38:30 51°15.299 2°50.482 -999 -999 -999 -999 -999
2008-04-29 07:38:35 51°15.306 2°50.458 -999 -999 -999 -999 -999
2008-04-29 07:38:39 51°15.311 2°50.439 -999 -999 -999 -999 -999
2008-04-29 07:38:45 51°15.319 2°50.409 -999 -999 -999 -999 -999
2008-04-29 07:38:50 51°15.326 2°50.385 -999 -999 -999 -999 -999
2008-04-29 07:38:54 51°15.331 2°50.366 -999 -999 -999 -999 -999
2008-04-29 07:39:00 51°15.338 2°50.336 -999 -999 -999 -999 -999
2008-04-29 07:39:05 51°15.344 2°50.311 -999 -999 -999 -999 -999
2008-04-29 07:39:10 51°15.35 2°50.286 -999 -999 -999 -999 -999
2008-04-29 07:39:14 51°15.354 2°50.266 -999 -999 -999 -999 -999
2008-04-29 07:39:19 51°15.359 2°50.241 -999 -999 -999 -999 -999
2008-04-29 07:39:25 51°15.365 2°50.211 -999 -999 -999 -999 -999
2008-04-29 07:39:30 51°15.37 2°50.186 -999 -999 -999 -999 -999
2008-04-29 07:39:34 51°15.374 2°50.166 -999 -999 -999 -999 -999
2008-04-29 07:39:39 51°15.378 2°50.141 -999 -999 -999 -999 -999
2008-04-29 07:39:45 51°15.384 2°50.11 -999 -999 -999 -999 -999
2008-04-29 07:39:50 51°15.389 2°50.085 -999 -999 -999 -999 -999
2008-04-29 07:39:54 51°15.393 2°50.064 -999 -999 -999 -999 -999
2008-04-29 07:39:59 51°15.399 2°50.039 -999 -999 -999 -999 -999
2008-04-29 07:40:04 51°15.404 2°50.014 -999 -999 -999 -999 -999
2008-04-29 07:40:10 51°15.41 2°49.983 -999 -999 -999 -999 -999
2008-04-29 07:40:14 51°15.414 2°49.963 -999 -999 -999 -999 -999
2008-04-29 07:40:19 51°15.419 2°49.938 -999 -999 -999 -999 -999
2008-04-29 07:40:24 51°15.424 2°49.912 -999 -999 -999 -999 -999
2008-04-29 07:40:30 51°15.43 2°49.882 -999 -999 -999 -999 -999
2008-04-29 07:40:35 51°15.436 2°49.856 -999 -999 -999 -999 -999
2008-04-29 07:40:39 51°15.44 2°49.836 -999 -999 -999 -999 -999
2008-04-29 07:40:45 51°15.446 2°49.806 -999 -999 -999 -999 -999
2008-04-29 07:40:50 51°15.451 2°49.78 -999 -999 -999 -999 -999
2008-04-29 07:40:55 51°15.456 2°49.755 -999 -999 -999 -999 -999
2008-04-29 07:41:00 51°15.461 2°49.73 -999 -999 -999 -999 -999
2008-04-29 07:41:05 51°15.466 2°49.705 -999 -999 -999 -999 -999
2008-04-29 07:41:10 51°15.471 2°49.679 -999 -999 -999 -999 -999
2008-04-29 07:41:14 51°15.475 2°49.659 -999 -999 -999 -999 -999
2008-04-29 07:41:19 51°15.48 2°49.634 -999 -999 -999 -999 -999
2008-04-29 07:41:25 51°15.486 2°49.603 -999 -999 -999 -999 -999
2008-04-29 07:41:30 51°15.491 2°49.578 -999 -999 -999 -999 -999
2008-04-29 07:41:34 51°15.495 2°49.557 -999 -999 -999 -999 -999
2008-04-29 07:41:40 51°15.501 2°49.527 -999 -999 -999 -999 -999
2008-04-29 07:41:45 51°15.506 2°49.502 -999 -999 -999 -999 -999
2008-04-29 07:41:50 51°15.51 2°49.476 -999 -999 -999 -999 -999
2008-04-29 07:41:54 51°15.514 2°49.456 -999 -999 -999 -999 -999
2008-04-29 07:41:59 51°15.519 2°49.43 -999 -999 -999 -999 -999
2008-04-29 07:42:05 51°15.525 2°49.4 -999 -999 -999 -999 -999
2008-04-29 07:42:10 51°15.53 2°49.374 -999 -999 -999 -999 -999
2008-04-29 07:42:14 51°15.535 2°49.354 -999 -999 -999 -999 -999
2008-04-29 07:42:19 51°15.54 2°49.329 -999 -999 -999 -999 -999
2008-04-29 07:42:24 51°15.546 2°49.304 -999 -999 -999 -999 -999
2008-04-29 07:42:30 51°15.552 2°49.273 -999 -999 -999 -999 -999
2008-04-29 07:42:35 51°15.558 2°49.248 -999 -999 -999 -999 -999
2008-04-29 07:42:39 51°15.562 2°49.228 -999 -999 -999 -999 -999
2008-04-29 07:42:45 51°15.569 2°49.198 -999 -999 -999 -999 -999
2008-04-29 07:42:50 51°15.575 2°49.172 -999 -999 -999 -999 -999
2008-04-29 07:42:55 51°15.581 2°49.147 -999 -999 -999 -999 -999
2008-04-29 07:43:00 51°15.586 2°49.122 -999 -999 -999 -999 -999
2008-04-29 07:43:05 51°15.592 2°49.097 -999 -999 -999 -999 -999
2008-04-29 07:43:10 51°15.598 2°49.072 -999 -999 -999 -999 -999
2008-04-29 07:43:15 51°15.603 2°49.046 -999 -999 -999 -999 -999
2008-04-29 07:43:19 51°15.608 2°49.026 -999 -999 -999 -999 -999
2008-04-29 07:43:25 51°15.615 2°48.996 -999 -999 -999 -999 -999
2008-04-29 07:43:30 51°15.621 2°48.971 -999 -999 -999 -999 -999
2008-04-29 07:43:34 51°15.625 2°48.951 -999 -999 -999 -999 -999
2008-04-29 07:43:40 51°15.632 2°48.92 -999 -999 -999 -999 -999
2008-04-29 07:43:45 51°15.638 2°48.895 -999 -999 -999 -999 -999
2008-04-29 07:43:50 51°15.644 2°48.87 -999 -999 -999 -999 -999
2008-04-29 07:43:54 51°15.649 2°48.85 -999 -999 -999 -999 -999
2008-04-29 07:44:00 51°15.655 2°48.819 -999 -999 -999 -999 -999
2008-04-29 07:44:05 51°15.661 2°48.794 -999 -999 -999 -999 -999
2008-04-29 07:44:10 51°15.667 2°48.768 -999 -999 -999 -999 -999
2008-04-29 07:44:14 51°15.672 2°48.748 -999 -999 -999 -999 -999
2008-04-29 07:44:19 51°15.677 2°48.723 -999 -999 -999 -999 -999
2008-04-29 07:44:25 51°15.684 2°48.692 -999 -999 -999 -999 -999
2008-04-29 07:44:30 51°15.69 2°48.667 -999 -999 -999 -999 -999
2008-04-29 07:44:34 51°15.693 2°48.646 -999 -999 -999 -999 -999
2008-04-29 07:44:39 51°15.698 2°48.621 -999 -999 -999 -999 -999
2008-04-29 07:44:44 51°15.703 2°48.595 -999 -999 -999 -999 -999
2008-04-29 07:44:50 51°15.709 2°48.564 -999 -999 -999 -999 -999
2008-04-29 07:44:55 51°15.713 2°48.539 -999 -999 -999 -999 -999
2008-04-29 07:44:59 51°15.717 2°48.518 -999 -999 -999 -999 -999
2008-04-29 07:45:05 51°15.722 2°48.487 -999 -999 -999 -999 -999
2008-04-29 07:45:10 51°15.726 2°48.462 -999 -999 -999 -999 -999
2008-04-29 07:45:15 51°15.731 2°48.436 -999 -999 -999 -999 -999
2008-04-29 07:45:19 51°15.735 2°48.416 -999 -999 -999 -999 -999
2008-04-29 07:45:25 51°15.74 2°48.385 -999 -999 -999 -999 -999
2008-04-29 07:45:30 51°15.745 2°48.36 -999 -999 -999 -999 -999
2008-04-29 07:45:35 51°15.75 2°48.334 -999 -999 -999 -999 -999
2008-04-29 07:45:39 51°15.754 2°48.314 -999 -999 -999 -999 -999
2008-04-29 07:45:45 51°15.759 2°48.284 -999 -999 -999 -999 -999
2008-04-29 07:45:50 51°15.764 2°48.258 -999 -999 -999 -999 -999
2008-04-29 07:45:54 51°15.768 2°48.238 -999 -999 -999 -999 -999
2008-04-29 07:46:00 51°15.774 2°48.208 -999 -999 -999 -999 -999
2008-04-29 07:46:05 51°15.778 2°48.183 -999 -999 -999 -999 -999
2008-04-29 07:46:10 51°15.783 2°48.158 -999 -999 -999 -999 -999
2008-04-29 07:46:14 51°15.787 2°48.138 -999 -999 -999 -999 -999
2008-04-29 07:46:19 51°15.792 2°48.112 -999 -999 -999 -999 -999
2008-04-29 07:46:25 51°15.797 2°48.082 -999 -999 -999 -999 -999
2008-04-29 07:46:30 51°15.802 2°48.057 -999 -999 -999 -999 -999
2008-04-29 07:46:34 51°15.806 2°48.037 -999 -999 -999 -999 -999
2008-04-29 07:46:39 51°15.811 2°48.012 -999 -999 -999 -999 -999
2008-04-29 07:46:45 51°15.817 2°47.982 -999 -999 -999 -999 -999
2008-04-29 07:46:50 51°15.822 2°47.956 -999 -999 -999 -999 -999
2008-04-29 07:46:55 51°15.827 2°47.931 -999 -999 -999 -999 -999
2008-04-29 07:46:59 51°15.831 2°47.911 -999 -999 -999 -999 -999
2008-04-29 07:47:05 51°15.837 2°47.881 -999 -999 -999 -999 -999
2008-04-29 07:47:10 51°15.842 2°47.856 -999 -999 -999 -999 -999
2008-04-29 07:47:15 51°15.847 2°47.83 -999 -999 -999 -999 -999
2008-04-29 07:47:19 51°15.851 2°47.81 -999 -999 -999 -999 -999
2008-04-29 07:47:25 51°15.857 2°47.78 -999 -999 -999 -999 -999
2008-04-29 07:47:30 51°15.863 2°47.755 -999 -999 -999 -999 -999
2008-04-29 07:47:35 51°15.867 2°47.73 -999 -999 -999 -999 -999
2008-04-29 07:47:39 51°15.872 2°47.71 -999 -999 -999 -999 -999
2008-04-29 07:47:45 51°15.878 2°47.679 -999 -999 -999 -999 -999
2008-04-29 07:47:50 51°15.883 2°47.655 -999 -999 -999 -999 -999
2008-04-29 07:47:55 51°15.888 2°47.63 -999 -999 -999 -999 -999
2008-04-29 07:48:00 51°15.893 2°47.605 -999 -999 -999 -999 -999
2008-04-29 07:48:05 51°15.898 2°47.58 -999 -999 -999 -999 -999
2008-04-29 07:48:10 51°15.903 2°47.555 -999 -999 -999 -999 -999
2008-04-29 07:48:14 51°15.908 2°47.535 -999 -999 -999 -999 -999
2008-04-29 07:48:20 51°15.914 2°47.505 -999 -999 -999 -999 -999
2008-04-29 07:48:25 51°15.919 2°47.48 -999 -999 -999 -999 -999
2008-04-29 07:48:30 51°15.925 2°47.455 -999 -999 -999 -999 -999
2008-04-29 07:48:34 51°15.929 2°47.435 -999 -999 -999 -999 -999
2008-04-29 07:48:39 51°15.934 2°47.411 -999 -999 -999 -999 -999
2008-04-29 07:48:45 51°15.94 2°47.381 -999 -999 -999 -999 -999
2008-04-29 07:48:50 51°15.945 2°47.356 -999 -999 -999 -999 -999
2008-04-29 07:48:54 51°15.95 2°47.336 -999 -999 -999 -999 -999
2008-04-29 07:48:59 51°15.955 2°47.311 -999 -999 -999 -999 -999
2008-04-29 07:49:04 51°15.96 2°47.286 -999 -999 -999 -999 -999
2008-04-29 07:49:10 51°15.966 2°47.256 -999 -999 -999 -999 -999
2008-04-29 07:49:15 51°15.971 2°47.232 -999 -999 -999 -999 -999
2008-04-29 07:49:19 51°15.976 2°47.212 -999 -999 -999 -999 -999
2008-04-29 07:49:25 51°15.982 2°47.182 -999 -999 -999 -999 -999
2008-04-29 07:49:30 51°15.988 2°47.157 -999 -999 -999 -999 -999
2008-04-29 07:49:34 51°15.993 2°47.138 -999 -999 -999 -999 -999
2008-04-29 07:49:39 51°15.998 2°47.112 -999 -999 -999 -999 -999
2008-04-29 07:49:45 51°16.005 2°47.083 -999 -999 -999 -999 -999
2008-04-29 07:49:50 51°16.011 2°47.058 -999 -999 -999 -999 -999
2008-04-29 07:49:55 51°16.016 2°47.033 -999 -999 -999 -999 -999
2008-04-29 07:49:59 51°16.02 2°47.013 -999 -999 -999 -999 -999
2008-04-29 07:50:05 51°16.026 2°46.983 -999 -999 -999 -999 -999
2008-04-29 07:50:10 51°16.032 2°46.959 -999 -999 -999 -999 -999
2008-04-29 07:50:15 51°16.037 2°46.934 -999 -999 -999 -999 -999
2008-04-29 07:50:20 51°16.042 2°46.909 -999 -999 -999 -999 -999
2008-04-29 07:50:25 51°16.048 2°46.884 -999 -999 -999 -999 -999
2008-04-29 07:50:30 51°16.053 2°46.859 -999 -999 -999 -999 -999
2008-04-29 07:50:34 51°16.057 2°46.839 -999 -999 -999 -999 -999
2008-04-29 07:50:40 51°16.063 2°46.809 -999 -999 -999 -999 -999
2008-04-29 07:50:45 51°16.069 2°46.784 -999 -999 -999 -999 -999
2008-04-29 07:50:50 51°16.075 2°46.76 -999 -999 -999 -999 -999
2008-04-29 07:50:54 51°16.079 2°46.739 -999 -999 -999 -999 -999
2008-04-29 07:51:00 51°16.086 2°46.71 -999 -999 -999 -999 -999
2008-04-29 07:51:05 51°16.092 2°46.685 -999 -999 -999 -999 -999
2008-04-29 07:51:10 51°16.098 2°46.66 -999 -999 -999 -999 -999
2008-04-29 07:51:15 51°16.104 2°46.635 -999 -999 -999 -999 -999
2008-04-29 07:51:19 51°16.109 2°46.615 -999 -999 -999 -999 -999
2008-04-29 07:51:25 51°16.116 2°46.585 -999 -999 -999 -999 -999
2008-04-29 07:51:30 51°16.122 2°46.56 -999 -999 -999 -999 -999
2008-04-29 07:51:34 51°16.127 2°46.541 -999 -999 -999 -999 -999
2008-04-29 07:51:39 51°16.133 2°46.516 -999 -999 -999 -999 -999
2008-04-29 07:51:45 51°16.14 2°46.486 -999 -999 -999 -999 -999
2008-04-29 07:51:50 51°16.145 2°46.461 -999 -999 -999 -999 -999
2008-04-29 07:51:55 51°16.151 2°46.436 -999 -999 -999 -999 -999
2008-04-29 07:51:59 51°16.155 2°46.416 -999 -999 -999 -999 -999
2008-04-29 07:52:05 51°16.162 2°46.386 -999 -999 -999 -999 -999
2008-04-29 07:52:10 51°16.167 2°46.36 -999 -999 -999 -999 -999
2008-04-29 07:52:15 51°16.172 2°46.335 -999 -999 -999 -999 -999
2008-04-29 07:52:20 51°16.177 2°46.31 -999 -999 -999 -999 -999
2008-04-29 07:52:25 51°16.182 2°46.285 -999 -999 -999 -999 -999
2008-04-29 07:52:30 51°16.187 2°46.26 -999 -999 -999 -999 -999
2008-04-29 07:52:34 51°16.191 2°46.24 -999 -999 -999 -999 -999
2008-04-29 07:52:40 51°16.198 2°46.21 -999 -999 -999 -999 -999
2008-04-29 07:52:45 51°16.203 2°46.184 -999 -999 -999 -999 -999
2008-04-29 07:52:50 51°16.208 2°46.159 -999 -999 -999 -999 -999
2008-04-29 07:52:54 51°16.212 2°46.139 -999 -999 -999 -999 -999
2008-04-29 07:53:00 51°16.218 2°46.109 -999 -999 -999 -999 -999
2008-04-29 07:53:05 51°16.223 2°46.084 -999 -999 -999 -999 -999
2008-04-29 07:53:10 51°16.228 2°46.058 -999 -999 -999 -999 -999
2008-04-29 07:53:14 51°16.232 2°46.038 -999 -999 -999 -999 -999
2008-04-29 07:53:19 51°16.238 2°46.013 -999 -999 -999 -999 -999
2008-04-29 07:53:25 51°16.244 2°45.983 -999 -999 -999 -999 -999
2008-04-29 07:53:30 51°16.249 2°45.958 -999 -999 -999 -999 -999
2008-04-29 07:53:34 51°16.253 2°45.938 -999 -999 -999 -999 -999
2008-04-29 07:53:39 51°16.258 2°45.912 -999 -999 -999 -999 -999
2008-04-29 07:53:45 51°16.264 2°45.882 -999 -999 -999 -999 -999
2008-04-29 07:53:50 51°16.27 2°45.857 -999 -999 -999 -999 -999
2008-04-29 07:53:54 51°16.274 2°45.837 -999 -999 -999 -999 -999
2008-04-29 07:53:59 51°16.28 2°45.811 -999 -999 -999 -999 -999
2008-04-29 07:54:04 51°16.285 2°45.786 -999 -999 -999 -999 -999
2008-04-29 07:54:10 51°16.291 2°45.756 -999 -999 -999 -999 -999
2008-04-29 07:54:15 51°16.296 2°45.731 -999 -999 -999 -999 -999
2008-04-29 07:54:19 51°16.3 2°45.71 -999 -999 -999 -999 -999
2008-04-29 07:54:25 51°16.307 2°45.68 -999 -999 -999 -999 -999
2008-04-29 07:54:30 51°16.312 2°45.655 -999 -999 -999 -999 -999
2008-04-29 07:54:35 51°16.318 2°45.629 -999 -999 -999 -999 -999
2008-04-29 07:54:40 51°16.323 2°45.604 -999 -999 -999 -999 -999
2008-04-29 07:54:45 51°16.328 2°45.579 -999 -999 -999 -999 -999
2008-04-29 07:54:50 51°16.334 2°45.554 -999 -999 -999 -999 -999
2008-04-29 07:54:55 51°16.339 2°45.528 -999 -999 -999 -999 -999
2008-04-29 07:55:00 51°16.345 2°45.503 -999 -999 -999 -999 -999
2008-04-29 07:55:05 51°16.351 2°45.478 -999 -999 -999 -999 -999
2008-04-29 07:55:10 51°16.357 2°45.453 -999 -999 -999 -999 -999
2008-04-29 07:55:14 51°16.362 2°45.433 -999 -999 -999 -999 -999
2008-04-29 07:55:20 51°16.369 2°45.403 -999 -999 -999 -999 -999
2008-04-29 07:55:25 51°16.375 2°45.378 -999 -999 -999 -999 -999
2008-04-29 07:55:30 51°16.382 2°45.354 -999 -999 -999 -999 -999
2008-04-29 07:55:34 51°16.387 2°45.334 -999 -999 -999 -999 -999
2008-04-29 07:55:39 51°16.393 2°45.309 -999 -999 -999 -999 -999
2008-04-29 07:55:45 51°16.401 2°45.279 -999 -999 -999 -999 -999
2008-04-29 07:55:50 51°16.407 2°45.255 -999 -999 -999 -999 -999
2008-04-29 07:55:54 51°16.412 2°45.235 -999 -999 -999 -999 -999
2008-04-29 07:55:59 51°16.419 2°45.21 -999 -999 -999 -999 -999
2008-04-29 07:56:04 51°16.425 2°45.185 -999 -999 -999 -999 -999
2008-04-29 07:56:10 51°16.435 2°45.156 -999 -999 -999 -999 -999
2008-04-29 07:56:15 51°16.442 2°45.132 -999 -999 -999 -999 -999
2008-04-29 07:56:19 51°16.449 2°45.113 -999 -999 -999 -999 -999
2008-04-29 07:56:25 51°16.459 2°45.085 -999 -999 -999 -999 -999
2008-04-29 07:56:30 51°16.468 2°45.062 -999 -999 -999 -999 -999
2008-04-29 07:56:35 51°16.477 2°45.038 -999 -999 -999 -999 -999
2008-04-29 07:56:40 51°16.486 2°45.015 -999 -999 -999 -999 -999
2008-04-29 07:56:45 51°16.494 2°44.992 -999 -999 -999 -999 -999
2008-04-29 07:56:50 51°16.504 2°44.969 -999 -999 -999 -999 -999
2008-04-29 07:56:55 51°16.513 2°44.946 -999 -999 -999 -999 -999
2008-04-29 07:57:00 51°16.523 2°44.924 -999 -999 -999 -999 -999
2008-04-29 07:57:05 51°16.533 2°44.901 -999 -999 -999 -999 -999
2008-04-29 07:57:10 51°16.543 2°44.879 -999 -999 -999 -999 -999
2008-04-29 07:57:14 51°16.551 2°44.862 -999 -999 -999 -999 -999
2008-04-29 07:57:20 51°16.563 2°44.835 -999 -999 -999 -999 -999
2008-04-29 07:57:25 51°16.573 2°44.813 -999 -999 -999 -999 -999
2008-04-29 07:57:30 51°16.583 2°44.79 -999 -999 -999 -999 -999
2008-04-29 07:57:34 51°16.591 2°44.772 -999 -999 -999 -999 -999
2008-04-29 07:57:40 51°16.603 2°44.745 -999 -999 -999 -999 -999
2008-04-29 07:57:45 51°16.613 2°44.723 -999 -999 -999 -999 -999
2008-04-29 07:57:50 51°16.623 2°44.7 -999 -999 -999 -999 -999
2008-04-29 07:57:54 51°16.631 2°44.682 -999 -999 -999 -999 -999
2008-04-29 07:57:59 51°16.641 2°44.66 -999 -999 -999 -999 -999
2008-04-29 07:58:05 51°16.653 2°44.633 -999 -999 -999 -999 -999
2008-04-29 07:58:10 51°16.662 2°44.61 -999 -999 -999 -999 -999
2008-04-29 07:58:14 51°16.67 2°44.592 -999 -999 -999 -999 -999
2008-04-29 07:58:19 51°16.679 2°44.569 -999 -999 -999 -999 -999
2008-04-29 07:58:25 51°16.691 2°44.542 -999 -999 -999 -999 -999
2008-04-29 07:58:30 51°16.7 2°44.519 -999 -999 -999 -999 -999
2008-04-29 07:58:35 51°16.709 2°44.496 -999 -999 -999 -999 -999
2008-04-29 07:58:39 51°16.717 2°44.477 -999 -999 -999 -999 -999
2008-04-29 07:58:45 51°16.728 2°44.449 -999 -999 -999 -999 -999
2008-04-29 07:58:50 51°16.737 2°44.425 -999 -999 -999 -999 -999
2008-04-29 07:58:55 51°16.746 2°44.402 -999 -999 -999 -999 -999
2008-04-29 07:59:00 51°16.755 2°44.379 -999 -999 -999 -999 -999
2008-04-29 07:59:05 51°16.764 2°44.355 -999 -999 -999 -999 -999
2008-04-29 07:59:10 51°16.773 2°44.332 -999 -999 -999 -999 -999
2008-04-29 07:59:15 51°16.783 2°44.309 -999 -999 -999 -999 -999
2008-04-29 07:59:19 51°16.79 2°44.29 -999 -999 -999 -999 -999
2008-04-29 07:59:25 51°16.802 2°44.262 -999 -999 -999 -999 -999
2008-04-29 07:59:30 51°16.811 2°44.239 -999 -999 -999 -999 -999
2008-04-29 07:59:34 51°16.819 2°44.221 -999 -999 -999 -999 -999
2008-04-29 07:59:40 51°16.83 2°44.193 -999 -999 -999 -999 -999
2008-04-29 07:59:45 51°16.84 2°44.171 -999 -999 -999 -999 -999
2008-04-29 07:59:50 51°16.849 2°44.147 -999 -999 -999 -999 -999
2008-04-29 07:59:54 51°16.857 2°44.129 -999 -999 -999 -999 -999
2008-04-29 07:59:59 51°16.866 2°44.106 -999 -999 -999 -999 -999
2008-04-29 08:00:05 51°16.877 2°44.078 -999 -999 -999 -999 -999
2008-04-29 08:00:10 51°16.886 2°44.054 -999 -999 -999 -999 -999
2008-04-29 08:00:14 51°16.893 2°44.036 -999 -999 -999 -999 -999
2008-04-29 08:00:19 51°16.902 2°44.012 -999 -999 -999 -999 -999
2008-04-29 08:00:25 51°16.913 2°43.985 -999 -999 -999 -999 -999
2008-04-29 08:00:30 51°16.923 2°43.962 -999 -999 -999 -999 -999
2008-04-29 08:00:35 51°16.932 2°43.938 -999 -999 -999 -999 -999
2008-04-29 08:00:39 51°16.94 2°43.92 -999 -999 -999 -999 -999
2008-04-29 08:00:45 51°16.951 2°43.893 -999 -999 -999 -999 -999
2008-04-29 08:00:50 51°16.96 2°43.87 -999 -999 -999 -999 -999
2008-04-29 08:00:55 51°16.97 2°43.846 -999 -999 -999 -999 -999
2008-04-29 08:01:00 51°16.979 2°43.823 -999 -999 -999 -999 -999
2008-04-29 08:01:05 51°16.988 2°43.8 -999 -999 -999 -999 -999
2008-04-29 08:01:10 51°16.997 2°43.777 -999 -999 -999 -999 -999
2008-04-29 08:01:15 51°17.006 2°43.754 -999 -999 -999 -999 -999
2008-04-29 08:01:19 51°17.013 2°43.735 -999 -999 -999 -999 -999
2008-04-29 08:01:25 51°17.023 2°43.706 -999 -999 -999 -999 -999
2008-04-29 08:01:30 51°17.033 2°43.683 -999 -999 -999 -999 -999
2008-04-29 08:01:35 51°17.042 2°43.66 -999 -999 -999 -999 -999
2008-04-29 08:01:40 51°17.051 2°43.637 -999 -999 -999 -999 -999
2008-04-29 08:01:45 51°17.06 2°43.613 -999 -999 -999 -999 -999
2008-04-29 08:01:50 51°17.069 2°43.59 -999 -999 -999 -999 -999
2008-04-29 08:01:55 51°17.078 2°43.567 -999 -999 -999 -999 -999
2008-04-29 08:02:00 51°17.087 2°43.544 -999 -999 -999 -999 -999
2008-04-29 08:02:05 51°17.097 2°43.521 -999 -999 -999 -999 -999
2008-04-29 08:02:10 51°17.106 2°43.498 -999 -999 -999 -999 -999
2008-04-29 08:02:14 51°17.114 2°43.48 -999 -999 -999 -999 -999
2008-04-29 08:02:19 51°17.123 2°43.457 -999 -999 -999 -999 -999
2008-04-29 08:02:25 51°17.134 2°43.429 -999 -999 -999 -999 -999
2008-04-29 08:02:30 51°17.143 2°43.406 -999 -999 -999 -999 -999
2008-04-29 08:02:34 51°17.15 2°43.387 -999 -999 -999 -999 -999
2008-04-29 08:02:39 51°17.159 2°43.364 -999 -999 -999 -999 -999
2008-04-29 08:02:45 51°17.17 2°43.336 -999 -999 -999 -999 -999
2008-04-29 08:02:50 51°17.178 2°43.313 -999 -999 -999 -999 -999
2008-04-29 08:02:55 51°17.187 2°43.289 -999 -999 -999 -999 -999
2008-04-29 08:02:59 51°17.194 2°43.27 -999 -999 -999 -999 -999
2008-04-29 08:03:05 51°17.205 2°43.243 -999 -999 -999 -999 -999
2008-04-29 08:03:10 51°17.214 2°43.22 -999 -999 -999 -999 -999
2008-04-29 08:03:15 51°17.223 2°43.197 -999 -999 -999 -999 -999
2008-04-29 08:03:19 51°17.23 2°43.178 -999 -999 -999 -999 -999
2008-04-29 08:03:25 51°17.241 2°43.151 -999 -999 -999 -999 -999
2008-04-29 08:03:30 51°17.25 2°43.128 -999 -999 -999 -999 -999
2008-04-29 08:03:35 51°17.26 2°43.106 -999 -999 -999 -999 -999
2008-04-29 08:03:39 51°17.267 2°43.087 -999 -999 -999 -999 -999
2008-04-29 08:03:45 51°17.278 2°43.06 -999 -999 -999 -999 -999
2008-04-29 08:03:50 51°17.288 2°43.037 -999 -999 -999 -999 -999
2008-04-29 08:03:55 51°17.296 2°43.014 -999 -999 -999 -999 -999
2008-04-29 08:04:00 51°17.306 2°42.991 -999 -999 -999 -999 -999
2008-04-29 08:04:05 51°17.316 2°42.969 -999 -999 -999 -999 -999
2008-04-29 08:04:10 51°17.325 2°42.946 -999 -999 -999 -999 -999
2008-04-29 08:04:14 51°17.333 2°42.929 -999 -999 -999 -999 -999
2008-04-29 08:04:20 51°17.345 2°42.903 -999 -999 -999 -999 -999
2008-04-29 08:04:25 51°17.355 2°42.881 -999 -999 -999 -999 -999
2008-04-29 08:04:30 51°17.366 2°42.859 -999 -999 -999 -999 -999
2008-04-29 08:04:34 51°17.373 2°42.841 -999 -999 -999 -999 -999
2008-04-29 08:04:39 51°17.383 2°42.819 -999 -999 -999 -999 -999
2008-04-29 08:04:45 51°17.394 2°42.793 -999 -999 -999 -999 -999
2008-04-29 08:04:50 51°17.404 2°42.77 -999 -999 -999 -999 -999
2008-04-29 08:04:55 51°17.413 2°42.747 -999 -999 -999 -999 -999
2008-04-29 08:04:59 51°17.421 2°42.729 -999 -999 -999 -999 -999
2008-04-29 08:05:05 51°17.432 2°42.702 -999 -999 -999 -999 -999
2008-04-29 08:05:10 51°17.442 2°42.678 -999 -999 -999 -999 -999
2008-04-29 08:05:15 51°17.451 2°42.656 -999 -999 -999 -999 -999
2008-04-29 08:05:19 51°17.459 2°42.638 -999 -999 -999 -999 -999
2008-04-29 08:05:24 51°17.469 2°42.616 -999 -999 -999 -999 -999
2008-04-29 08:05:30 51°17.481 2°42.589 -999 -999 -999 -999 -999
2008-04-29 08:05:34 51°17.489 2°42.571 6 266 -999 -999 -999
2008-04-29 08:05:39 51°17.499 2°42.549 3.9 260 -999 -999 -999
2008-04-29 08:05:44 51°17.509 2°42.527 5.2 303 -999 -999 -999
2008-04-29 08:05:49 51°17.519 2°42.504 5 258 8.6 -999 83
2008-04-29 08:05:54 51°17.529 2°42.482 5.8 306 8.6 -999 83
2008-04-29 08:05:58 51°17.537 2°42.463 5.2 251 8.5 -999 93
2008-04-29 08:06:03 51°17.547 2°42.44 6.8 307 8.5 -999 93
2008-04-29 08:06:08 51°17.556 2°42.417 5.1 260 8.5 100090 93
2008-04-29 08:06:13 51°17.566 2°42.394 5.3 303 8.5 100090 93
2008-04-29 08:06:18 51°17.576 2°42.371 6.1 253 8.5 100090 93
2008-04-29 08:06:23 51°17.586 2°42.348 6.3 305 8.5 100090 93
2008-04-29 08:06:27 51°17.593 2°42.33 6.7 258 8.5 100090 93
2008-04-29 08:06:32 51°17.604 2°42.308 6 305 8.5 100090 93
2008-04-29 08:06:38 51°17.616 2°42.281 5.6 254 8.6 100090 93
2008-04-29 08:06:42 51°17.625 2°42.263 6.3 302 8.6 100090 93
2008-04-29 08:06:47 51°17.635 2°42.24 6 256 8.6 100090 93
2008-04-29 08:06:52 51°17.646 2°42.218 4.7 304 8.6 100090 93
2008-04-29 08:06:57 51°17.656 2°42.195 5.4 260 8.6 100100 93
2008-04-29 08:07:02 51°17.667 2°42.173 4.1 304 8.6 100100 93
2008-04-29 08:07:06 51°17.675 2°42.155 4.7 250 8.6 100090 93
2008-04-29 08:07:11 51°17.686 2°42.133 4.6 309 8.6 100090 93
2008-04-29 08:07:16 51°17.697 2°42.11 4.9 250 8.6 100090 93
2008-04-29 08:07:21 51°17.707 2°42.087 4.1 304 8.6 100090 93
2008-04-29 08:07:26 51°17.718 2°42.065 4.9 250 8.6 100080 93
2008-04-29 08:07:31 51°17.728 2°42.042 4.1 310 8.6 100080 93
2008-04-29 08:07:36 51°17.738 2°42.019 3.8 19 8.6 100090 93
2008-04-29 08:07:41 51°17.749 2°41.997 3.9 303 8.6 100090 93
2008-04-29 08:07:46 51°17.759 2°41.974 4 250 8.6 100090 93
2008-04-29 08:07:51 51°17.77 2°41.951 4.4 303 8.6 100090 93
2008-04-29 08:07:56 51°17.78 2°41.928 4.8 252 8.6 100080 93
2008-04-29 08:08:01 51°17.791 2°41.906 4.5 304 8.6 100080 93
2008-04-29 08:08:06 51°17.802 2°41.884 5.5 250 8.6 100090 93
2008-04-29 08:08:11 51°17.812 2°41.862 5.1 308 8.6 100090 93
2008-04-29 08:08:16 51°17.823 2°41.839 5 251 8.6 100090 93
2008-04-29 08:08:21 51°17.833 2°41.817 5.4 302 8.6 100090 93
2008-04-29 08:08:26 51°17.844 2°41.794 4.7 250 8.7 100090 93
2008-04-29 08:08:31 51°17.854 2°41.771 5.3 307 8.7 100090 93
2008-04-29 08:08:36 51°17.865 2°41.749 4.6 24 8.7 100090 93
2008-04-29 08:08:41 51°17.875 2°41.726 4.3 304 8.7 100090 93
2008-04-29 08:08:46 51°17.885 2°41.703 6 249 8.7 100080 93
2008-04-29 08:08:51 51°17.895 2°41.681 6.8 305 8.7 100080 93
2008-04-29 08:08:56 51°17.904 2°41.657 6 251 8.7 100090 93
2008-04-29 08:09:02 51°17.915 2°41.629 4.8 304 8.7 100090 93
2008-04-29 08:09:06 51°17.923 2°41.611 6.3 250 8.7 100080 93
2008-04-29 08:09:11 51°17.932 2°41.588 6.7 304 8.7 100080 93
2008-04-29 08:09:16 51°17.942 2°41.565 5.5 251 8.8 100090 93
2008-04-29 08:09:22 51°17.954 2°41.537 6.3 304 8.8 100090 93
2008-04-29 08:09:26 51°17.962 2°41.519 5.7 21 8.8 100090 93
2008-04-29 08:09:31 51°17.971 2°41.496 6.8 304 8.8 100090 93
2008-04-29 08:09:36 51°17.981 2°41.473 8.3 254 8.8 100090 93
2008-04-29 08:09:41 51°17.991 2°41.451 7.9 302 8.8 100090 93
2008-04-29 08:09:46 51°18 2°41.428 7.9 256 8.8 100090 93
2008-04-29 08:09:51 51°18.009 2°41.404 6.1 304 8.8 100090 93
2008-04-29 08:09:56 51°18.019 2°41.382 6.2 256 8.8 100090 93
2008-04-29 08:10:01 51°18.029 2°41.359 7.6 303 8.8 100090 93
2008-04-29 08:10:06 51°18.038 2°41.336 8.2 253 8.8 100080 93
2008-04-29 08:10:11 51°18.048 2°41.313 8.6 306 8.8 100080 93
2008-04-29 08:10:16 51°18.058 2°41.291 8.6 257 8.8 100090 93
2008-04-29 08:10:21 51°18.067 2°41.268 8.1 305 8.8 100090 93
2008-04-29 08:10:26 51°18.077 2°41.245 6.1 252 8.8 100090 93
2008-04-29 08:10:31 51°18.086 2°41.222 6.9 304 8.8 100090 93
2008-04-29 08:10:36 51°18.095 2°41.199 7 255 8.8 100090 93
2008-04-29 08:10:41 51°18.105 2°41.176 7.1 303 8.8 100090 93
2008-04-29 08:10:46 51°18.114 2°41.153 7.5 259 8.8 100090 92
2008-04-29 08:10:51 51°18.123 2°41.13 6.4 303 8.8 100090 92
2008-04-29 08:10:56 51°18.133 2°41.107 7.1 258 8.8 100090 92
2008-04-29 08:11:02 51°18.144 2°41.08 6.3 307 8.8 100090 92
2008-04-29 08:11:06 51°18.152 2°41.062 5.3 257 8.8 100080 92
2008-04-29 08:11:11 51°18.161 2°41.039 6.5 304 8.8 100080 92
2008-04-29 08:11:16 51°18.17 2°41.016 5.3 255 8.8 100090 92
2008-04-29 08:11:21 51°18.18 2°40.994 5.6 306 8.8 100090 92
2008-04-29 08:11:26 51°18.189 2°40.971 4.3 259 8.8 100090 92
2008-04-29 08:11:31 51°18.199 2°40.949 4.6 308 8.8 100090 92
2008-04-29 08:11:36 51°18.208 2°40.926 4.1 262 8.8 100090 92
2008-04-29 08:11:41 51°18.217 2°40.903 5.2 310 8.8 100090 92
2008-04-29 08:11:46 51°18.227 2°40.881 4.4 259 8.8 100080 92
2008-04-29 08:11:51 51°18.237 2°40.859 3.8 308 8.8 100080 92
2008-04-29 08:11:56 51°18.246 2°40.836 4 261 8.8 100090 92
2008-04-29 08:12:01 51°18.256 2°40.814 4.4 304 8.8 100090 92
2008-04-29 08:12:06 51°18.266 2°40.793 4 248 8.8 100090 91
2008-04-29 08:12:11 51°18.275 2°40.77 4.8 303 8.8 100090 91
2008-04-29 08:12:16 51°18.285 2°40.749 4.4 259 8.7 100090 91
2008-04-29 08:12:21 51°18.295 2°40.727 3.7 309 8.7 100090 91
2008-04-29 08:12:26 51°18.305 2°40.705 4.4 253 8.7 100080 91
2008-04-29 08:12:31 51°18.315 2°40.683 5.6 310 8.7 100080 91
2008-04-29 08:12:36 51°18.325 2°40.66 5.7 258 8.7 100080 92
2008-04-29 08:12:41 51°18.334 2°40.638 3.7 307 8.7 100080 92
2008-04-29 08:12:46 51°18.344 2°40.616 4.5 253 8.8 100080 92
2008-04-29 08:12:51 51°18.353 2°40.593 5.7 309 8.8 100080 92
2008-04-29 08:12:56 51°18.362 2°40.571 6.5 255 8.8 100080 92
2008-04-29 08:13:01 51°18.372 2°40.548 5.3 308 8.8 100080 92
2008-04-29 08:13:06 51°18.381 2°40.525 5.4 251 8.8 100090 92
2008-04-29 08:13:11 51°18.39 2°40.503 5.7 303 8.8 100090 92
2008-04-29 08:13:16 51°18.4 2°40.481 4.1 251 8.8 100080 92
2008-04-29 08:13:21 51°18.409 2°40.458 5 307 8.8 100080 92
2008-04-29 08:13:26 51°18.419 2°40.436 4.4 254 8.8 100090 92
2008-04-29 08:13:31 51°18.428 2°40.413 4.6 303 8.8 100090 92
2008-04-29 08:13:36 51°18.438 2°40.391 5.7 257 8.8 100080 92
2008-04-29 08:13:41 51°18.447 2°40.369 4.5 307 8.8 100080 92
2008-04-29 08:13:46 51°18.457 2°40.347 4.2 254 8.8 100080 92
2008-04-29 08:13:51 51°18.466 2°40.325 5.4 302 8.8 100080 92
2008-04-29 08:13:56 51°18.476 2°40.303 4.2 261 8.8 100080 92
2008-04-29 08:14:01 51°18.485 2°40.281 5.6 305 8.8 100080 92
2008-04-29 08:14:06 51°18.495 2°40.259 4.4 263 8.8 100080 92
2008-04-29 08:14:11 51°18.504 2°40.236 2.9 304 8.8 100080 92
2008-04-29 08:14:16 51°18.514 2°40.214 4 256 8.8 100080 92
2008-04-29 08:14:21 51°18.524 2°40.192 4.9 304 8.8 100080 92
2008-04-29 08:14:26 51°18.534 2°40.17 3.7 263 8.8 100080 92
2008-04-29 08:14:31 51°18.544 2°40.148 5.7 308 8.8 100080 92
2008-04-29 08:14:36 51°18.554 2°40.126 6.1 252 8.9 100080 92
2008-04-29 08:14:41 51°18.565 2°40.104 4.7 304 8.9 100080 92
2008-04-29 08:14:46 51°18.575 2°40.081 5.6 248 8.9 100080 92
2008-04-29 08:14:51 51°18.585 2°40.059 5 303 8.9 100080 92
2008-04-29 08:14:56 51°18.595 2°40.037 5.3 255 8.9 100070 92
2008-04-29 08:15:01 51°18.605 2°40.015 6.7 303 8.9 100070 92
2008-04-29 08:15:06 51°18.615 2°39.993 8.3 257 8.9 100080 92
2008-04-29 08:15:11 51°18.625 2°39.971 6.5 305 8.9 100080 92
2008-04-29 08:15:16 51°18.636 2°39.948 7.7 258 8.9 100080 92
2008-04-29 08:15:21 51°18.646 2°39.926 6.8 304 8.9 100080 92
2008-04-29 08:15:26 51°18.657 2°39.904 5.7 255 8.9 100080 92
2008-04-29 08:15:31 51°18.667 2°39.882 5.5 305 8.9 100080 92
2008-04-29 08:15:36 51°18.677 2°39.86 5.1 259 8.9 100090 92
2008-04-29 08:15:41 51°18.687 2°39.837 4.4 305 8.9 100090 92
2008-04-29 08:15:46 51°18.698 2°39.815 5.1 258 8.9 100080 91
2008-04-29 08:15:51 51°18.708 2°39.793 3.1 302 8.9 100080 91
2008-04-29 08:15:56 51°18.718 2°39.77 4.2 256 8.9 100080 91
2008-04-29 08:16:02 51°18.73 2°39.743 5.8 302 8.9 100080 91
2008-04-29 08:16:06 51°18.739 2°39.726 5.3 251 8.8 100080 91
2008-04-29 08:16:11 51°18.749 2°39.703 7.1 307 8.8 100080 91
2008-04-29 08:16:16 51°18.759 2°39.681 4.5 253 8.8 100080 91
2008-04-29 08:16:22 51°18.771 2°39.654 6.1 308 8.8 100080 91
2008-04-29 08:16:26 51°18.78 2°39.636 5.2 257 8.8 100070 91
2008-04-29 08:16:31 51°18.79 2°39.614 5.8 309 8.8 100070 91
2008-04-29 08:16:36 51°18.8 2°39.591 3.6 261 8.8 100080 91
2008-04-29 08:16:41 51°18.811 2°39.569 4.7 304 8.8 100080 91
2008-04-29 08:16:46 51°18.821 2°39.546 4.1 259 8.8 100070 91
2008-04-29 08:16:51 51°18.831 2°39.524 4.2 303 8.8 100070 91
2008-04-29 08:16:56 51°18.842 2°39.501 5.2 257 8.8 100080 91
2008-04-29 08:17:02 51°18.854 2°39.475 5.7 309 8.8 100080 91
2008-04-29 08:17:06 51°18.862 2°39.457 6.1 259 8.8 100080 91
2008-04-29 08:17:11 51°18.872 2°39.434 4.6 304 8.8 100080 91
2008-04-29 08:17:16 51°18.882 2°39.411 5.5 257 8.8 100080 91
2008-04-29 08:17:21 51°18.892 2°39.389 4.6 303 8.8 100080 91
2008-04-29 08:17:26 51°18.902 2°39.367 4.7 255 8.8 100070 91
2008-04-29 08:17:31 51°18.912 2°39.344 4.8 306 8.8 100070 91
2008-04-29 08:17:36 51°18.922 2°39.322 4.8 248 8.8 100080 91
2008-04-29 08:17:41 51°18.932 2°39.3 7.3 304 8.8 100080 91
2008-04-29 08:17:46 51°18.942 2°39.277 6.3 259 8.8 100070 91
2008-04-29 08:17:51 51°18.951 2°39.254 7.7 305 8.8 100070 91
2008-04-29 08:17:56 51°18.961 2°39.232 6.9 256 8.8 100070 91
2008-04-29 08:18:02 51°18.972 2°39.204 5.4 302 8.8 100070 91
2008-04-29 08:18:06 51°18.979 2°39.186 6.3 257 8.8 100070 91
2008-04-29 08:18:11 51°18.988 2°39.163 6.2 309 8.8 100070 91
2008-04-29 08:18:16 51°18.998 2°39.14 5.9 259 8.8 100070 91
2008-04-29 08:18:22 51°19.008 2°39.112 4.8 303 8.8 100070 91
2008-04-29 08:18:26 51°19.016 2°39.093 5.5 260 8.8 100070 91
2008-04-29 08:18:31 51°19.026 2°39.071 3.6 308 8.8 100070 91
2008-04-29 08:18:36 51°19.035 2°39.048 4.6 259 8.8 100070 91
2008-04-29 08:18:41 51°19.045 2°39.026 3.6 305 8.8 100070 91
2008-04-29 08:18:46 51°19.056 2°39.004 3.9 256 8.8 100070 91
2008-04-29 08:18:51 51°19.065 2°38.981 5.7 308 8.8 100070 91
2008-04-29 08:18:56 51°19.075 2°38.959 5.3 254 8.8 100070 91
2008-04-29 08:19:01 51°19.085 2°38.937 4.8 308 8.8 100070 91
2008-04-29 08:19:06 51°19.095 2°38.914 2.8 261 8.8 100070 91
2008-04-29 08:19:11 51°19.105 2°38.891 3.4 302 8.8 100070 91
2008-04-29 08:19:16 51°19.115 2°38.868 4.6 259 8.8 100070 91
2008-04-29 08:19:21 51°19.124 2°38.846 3.9 304 8.8 100070 91
2008-04-29 08:19:26 51°19.134 2°38.823 5.6 258 8.8 100070 91
2008-04-29 08:19:31 51°19.143 2°38.8 4.4 304 8.8 100070 91
2008-04-29 08:19:36 51°19.152 2°38.777 4.7 260 8.8 100070 91
2008-04-29 08:19:41 51°19.162 2°38.755 5.6 302 8.8 100070 91
2008-04-29 08:19:46 51°19.171 2°38.732 4.2 257 8.8 100070 91
2008-04-29 08:19:51 51°19.18 2°38.709 6 306 8.8 100070 91
2008-04-29 08:19:56 51°19.19 2°38.686 4.2 259 8.8 100070 91
2008-04-29 08:20:02 51°19.201 2°38.659 6.4 309 8.8 100070 91
2008-04-29 08:20:06 51°19.208 2°38.641 6.8 257 8.8 100070 91
2008-04-29 08:20:11 51°19.217 2°38.617 5.7 305 8.8 100070 91
2008-04-29 08:20:16 51°19.227 2°38.594 6.6 254 8.8 100070 91
2008-04-29 08:20:21 51°19.236 2°38.571 5.5 304 8.8 100070 91
2008-04-29 08:20:26 51°19.245 2°38.548 7.4 257 8.8 100070 91
2008-04-29 08:20:31 51°19.255 2°38.525 6.1 302 8.8 100070 91
2008-04-29 08:20:36 51°19.265 2°38.503 5.5 252 8.8 100070 91
2008-04-29 08:20:41 51°19.275 2°38.48 5.7 304 8.8 100070 91
2008-04-29 08:20:46 51°19.285 2°38.457 4.3 260 8.8 100060 91
2008-04-29 08:20:51 51°19.295 2°38.434 6.1 308 8.8 100060 91
2008-04-29 08:20:56 51°19.304 2°38.411 5.1 262 8.8 100070 91
2008-04-29 08:21:01 51°19.314 2°38.387 6.9 308 8.8 100070 91
2008-04-29 08:21:06 51°19.323 2°38.364 4.9 262 8.8 100070 91
2008-04-29 08:21:11 51°19.333 2°38.341 5.8 304 8.8 100070 91
2008-04-29 08:21:16 51°19.343 2°38.318 5.1 260 8.8 100070 91
2008-04-29 08:21:21 51°19.353 2°38.296 3.8 309 8.8 100070 91
2008-04-29 08:21:26 51°19.363 2°38.273 3.7 264 8.8 100080 91
2008-04-29 08:21:31 51°19.372 2°38.25 4.8 309 8.8 100080 91
2008-04-29 08:21:36 51°19.382 2°38.227 4 264 8.8 100070 90
2008-04-29 08:21:41 51°19.391 2°38.204 3.8 302 8.8 100070 90
2008-04-29 08:21:46 51°19.401 2°38.181 5.5 261 8.8 100070 90
2008-04-29 08:21:51 51°19.41 2°38.158 3.9 307 8.8 100070 90
2008-04-29 08:21:56 51°19.419 2°38.135 6.1 254 8.8 100070 90
2008-04-29 08:22:02 51°19.431 2°38.107 5.1 308 8.8 100070 90
2008-04-29 08:22:06 51°19.438 2°38.089 4.5 259 8.8 100070 90
2008-04-29 08:22:11 51°19.448 2°38.066 8.1 306 8.8 100070 90
2008-04-29 08:22:16 51°19.458 2°38.043 7.4 257 8.8 100070 90
2008-04-29 08:22:21 51°19.467 2°38.02 6.4 304 8.8 100070 90
2008-04-29 08:22:26 51°19.477 2°37.997 6.1 256 8.8 100070 91
2008-04-29 08:22:31 51°19.487 2°37.975 5.2 303 8.8 100070 91
2008-04-29 08:22:36 51°19.496 2°37.952 5.2 257 8.8 100070 91
2008-04-29 08:22:41 51°19.506 2°37.929 5.3 304 8.8 100070 91
2008-04-29 08:22:46 51°19.516 2°37.907 6.1 260 8.8 100070 91
2008-04-29 08:22:51 51°19.526 2°37.884 5.5 303 8.8 100070 91
2008-04-29 08:22:56 51°19.535 2°37.861 5.2 260 8.8 100070 91
2008-04-29 08:23:02 51°19.547 2°37.834 4.9 306 8.8 100070 91
2008-04-29 08:23:06 51°19.554 2°37.815 6.5 260 8.8 100070 91
2008-04-29 08:23:11 51°19.564 2°37.793 6.1 306 8.8 100070 91
2008-04-29 08:23:16 51°19.574 2°37.77 5.6 261 8.8 100060 91
2008-04-29 08:23:21 51°19.583 2°37.747 6.8 308 8.8 100060 91
2008-04-29 08:23:26 51°19.593 2°37.725 5.8 254 8.8 100070 91
2008-04-29 08:23:31 51°19.602 2°37.702 3.8 308 8.8 100070 91
2008-04-29 08:23:36 51°19.612 2°37.679 2.9 259 8.8 100070 91
2008-04-29 08:23:41 51°19.621 2°37.657 4.6 308 8.8 100070 91
2008-04-29 08:23:46 51°19.631 2°37.634 6.3 257 8.8 100070 90
2008-04-29 08:23:51 51°19.641 2°37.612 5.3 309 8.8 100070 90
2008-04-29 08:23:56 51°19.651 2°37.59 6.1 257 8.8 100070 90
2008-04-29 08:24:02 51°19.663 2°37.562 5.6 302 8.8 100070 90
2008-04-29 08:24:06 51°19.671 2°37.545 5.1 256 8.8 100070 91
2008-04-29 08:24:11 51°19.68 2°37.522 4.5 304 8.8 100070 91
2008-04-29 08:24:16 51°19.69 2°37.5 5.6 258 8.8 100070 91
2008-04-29 08:24:21 51°19.7 2°37.477 6.6 306 8.8 100070 91
2008-04-29 08:24:26 51°19.709 2°37.454 7.7 258 8.7 100070 91
2008-04-29 08:24:31 51°19.718 2°37.431 7.5 307 8.7 100070 91
2008-04-29 08:24:36 51°19.728 2°37.408 5.7 258 8.8 100070 91
2008-04-29 08:24:41 51°19.738 2°37.386 5.1 305 8.8 100070 91
2008-04-29 08:24:46 51°19.748 2°37.365 5.2 261 8.8 100070 91
2008-04-29 08:24:51 51°19.758 2°37.343 4.2 306 8.8 100070 91
2008-04-29 08:24:56 51°19.768 2°37.32 6.3 259 8.8 100060 91
2008-04-29 08:25:02 51°19.78 2°37.293 3.7 304 8.8 100060 91
2008-04-29 08:25:06 51°19.788 2°37.276 4.1 258 8.8 100070 91
2008-04-29 08:25:11 51°19.797 2°37.253 4.7 305 8.8 100070 91
2008-04-29 08:25:16 51°19.808 2°37.231 5.4 260 8.8 100070 90
2008-04-29 08:25:21 51°19.817 2°37.208 3.6 307 8.8 100070 90
2008-04-29 08:25:26 51°19.827 2°37.186 5.7 261 8.8 100060 90
2008-04-29 08:25:31 51°19.837 2°37.163 4.7 309 8.8 100060 90
2008-04-29 08:25:36 51°19.848 2°37.142 3.9 260 8.8 100060 91
2008-04-29 08:25:41 51°19.857 2°37.119 2.8 305 8.8 100060 91
2008-04-29 08:25:46 51°19.868 2°37.099 4.6 265 8.8 100060 91
2008-04-29 08:25:51 51°19.878 2°37.079 4.5 301 8.8 100060 91
2008-04-29 08:25:56 51°19.887 2°37.062 3.4 264 8.7 100070 90
2008-04-29 08:26:01 51°19.896 2°37.045 4.8 59 8.7 100070 90
2008-04-29 08:26:06 51°19.905 2°37.031 5.9 29 8.7 100070 90
2008-04-29 08:26:11 51°19.912 2°37.017 4.3 51 8.7 100070 90
2008-04-29 08:26:16 51°19.921 2°37.004 5 22 8.7 100070 90
2008-04-29 08:26:21 51°19.928 2°36.991 4 52 8.7 100070 90
2008-04-29 08:26:26 51°19.935 2°36.979 4 270 8.7 100070 90
2008-04-29 08:26:31 51°19.942 2°36.968 4.9 54 8.7 100070 90
2008-04-29 08:26:36 51°19.949 2°36.957 4.9 21 8.7 100060 90
2008-04-29 08:26:41 51°19.956 2°36.945 5.3 58 8.7 100060 90
2008-04-29 08:26:46 51°19.962 2°36.935 4.6 20 8.7 100070 90
2008-04-29 08:26:51 51°19.968 2°36.925 6.4 50 8.7 100070 90
2008-04-29 08:26:56 51°19.974 2°36.915 6 22 8.7 100070 90
2008-04-29 08:27:02 51°19.981 2°36.903 6.5 53 8.7 100070 90
2008-04-29 08:27:06 51°19.985 2°36.896 5.2 26 8.7 100070 90
2008-04-29 08:27:11 51°19.99 2°36.887 6.4 53 8.7 100070 90
2008-04-29 08:27:16 51°19.995 2°36.879 5.2 270 8.6 100070 90
2008-04-29 08:27:21 51°19.999 2°36.872 8.5 59 8.6 100070 90
2008-04-29 08:27:26 51°20.002 2°36.867 7.1 268 8.6 100070 90
2008-04-29 08:27:31 51°20.005 2°36.862 7.8 305 8.6 100070 90
2008-04-29 08:27:36 51°20.007 2°36.858 9.4 270 8.6 100070 90
2008-04-29 08:27:42 51°20.01 2°36.853 9.4 306 8.6 100070 90
2008-04-29 08:27:46 51°20.011 2°36.849 7.7 266 8.6 100070 90
2008-04-29 08:27:51 51°20.013 2°36.846 8.3 308 8.6 100070 90
2008-04-29 08:27:56 51°20.015 2°36.842 8.4 266 8.6 100070 91
2008-04-29 08:28:01 51°20.016 2°36.838 8.2 302 8.6 100070 91
2008-04-29 08:28:06 51°20.017 2°36.834 7.3 270 8.6 100070 91
2008-04-29 08:28:11 51°20.019 2°36.831 7.5 310 8.6 100070 91
2008-04-29 08:28:16 51°20.02 2°36.829 7.5 264 8.6 100060 91
2008-04-29 08:28:21 51°20.021 2°36.826 5.6 303 8.6 100060 91
2008-04-29 08:28:26 51°20.023 2°36.824 7 263 8.7 100070 91
2008-04-29 08:28:31 51°20.024 2°36.822 6.5 303 8.7 100070 91
2008-04-29 08:28:36 51°20.025 2°36.82 6.2 263 8.6 100070 91
2008-04-29 08:28:41 51°20.026 2°36.819 7.3 305 8.6 100070 91
2008-04-29 08:28:46 51°20.028 2°36.818 8 266 8.6 100070 91
2008-04-29 08:28:51 51°20.029 2°36.817 8.1 305 8.6 100070 91
2008-04-29 08:28:56 51°20.031 2°36.817 7.4 264 8.6 100070 91
2008-04-29 08:29:02 51°20.032 2°36.818 8.2 305 8.6 100070 91
2008-04-29 08:29:06 51°20.034 2°36.818 6.8 267 8.6 100070 91
2008-04-29 08:29:11 51°20.035 2°36.819 6.9 302 8.6 100070 91
2008-04-29 08:29:16 51°20.037 2°36.82 8.6 265 8.6 100070 91
2008-04-29 08:29:21 51°20.038 2°36.822 9.1 309 8.6 100070 91
2008-04-29 08:29:26 51°20.04 2°36.823 8.6 269 8.6 100070 91
2008-04-29 08:29:31 51°20.042 2°36.825 7.9 307 8.6 100070 91
2008-04-29 08:29:36 51°20.043 2°36.828 7.5 31 8.6 100070 91
2008-04-29 08:29:42 51°20.045 2°36.83 9.9 59 8.6 100070 91
2008-04-29 08:29:46 51°20.047 2°36.832 8.5 26 8.6 100060 91
2008-04-29 08:29:51 51°20.048 2°36.835 10.2 57 8.6 100060 91
2008-04-29 08:29:56 51°20.05 2°36.837 10.6 27 8.6 100080 91
2008-04-29 08:30:02 51°20.052 2°36.84 10 55 8.6 100080 91
2008-04-29 08:30:08 51°20.053 2°36.843 8.2 26 8.6 100070 91
2008-04-29 08:30:14 51°20.055 2°36.847 10.1 53 8.6 100070 91
2008-04-29 08:30:18 51°20.056 2°36.849 7.6 23 8.6 100070 91
2008-04-29 08:30:24 51°20.058 2°36.852 7.5 57 8.6 100070 91
2008-04-29 08:30:30 51°20.059 2°36.854 9 25 8.6 100070 91
2008-04-29 08:30:34 51°20.06 2°36.856 9 50 8.6 100070 91
2008-04-29 08:30:40 51°20.061 2°36.858 6.9 19 8.6 100070 91
2008-04-29 08:30:45 51°20.063 2°36.86 6.8 52 8.6 100070 91
2008-04-29 08:30:50 51°20.064 2°36.862 9.7 23 8.6 100070 91
2008-04-29 08:30:55 51°20.065 2°36.864 7.2 53 8.6 100070 91
2008-04-29 08:31:00 51°20.066 2°36.865 9.5 20 8.6 100070 91
2008-04-29 08:31:05 51°20.067 2°36.867 10 56 8.6 100070 91
2008-04-29 08:31:10 51°20.069 2°36.868 10 25 8.6 100060 92
2008-04-29 08:31:14 51°20.07 2°36.87 9.5 55 8.6 100060 92
2008-04-29 08:31:19 51°20.071 2°36.871 9.2 19 8.6 100070 92
2008-04-29 08:31:24 51°20.072 2°36.873 8.7 52 8.6 100070 92
2008-04-29 08:31:29 51°20.073 2°36.874 9.3 26 8.6 100070 92
2008-04-29 08:31:34 51°20.075 2°36.876 8.6 57 8.6 100070 92
2008-04-29 08:31:38 51°20.076 2°36.877 7.4 21 8.6 100070 92
2008-04-29 08:31:43 51°20.077 2°36.878 8.8 51 8.6 100070 92
2008-04-29 08:31:48 51°20.079 2°36.88 8.2 19 8.6 100070 92
2008-04-29 08:31:53 51°20.08 2°36.881 8.4 55 8.6 100070 92
2008-04-29 08:31:58 51°20.081 2°36.883 9.9 22 8.6 100070 92
2008-04-29 08:32:03 51°20.082 2°36.885 6.8 57 8.6 100070 92
2008-04-29 08:32:07 51°20.083 2°36.886 7.9 24 8.6 100070 92
2008-04-29 08:32:12 51°20.085 2°36.888 7.9 57 8.6 100070 92
2008-04-29 08:32:17 51°20.086 2°36.89 9.7 20 8.7 100070 93
2008-04-29 08:32:22 51°20.087 2°36.891 7.5 58 8.7 100070 93
2008-04-29 08:32:27 51°20.088 2°36.893 7.5 26 8.7 100060 93
2008-04-29 08:32:32 51°20.089 2°36.895 8.4 53 8.7 100060 93
2008-04-29 08:32:37 51°20.09 2°36.897 9.1 21 8.7 100070 93
2008-04-29 08:32:42 51°20.091 2°36.9 6.7 54 8.7 100070 93
2008-04-29 08:32:46 51°20.091 2°36.901 8 25 8.7 100070 93
2008-04-29 08:32:51 51°20.092 2°36.903 6.1 56 8.7 100070 93
2008-04-29 08:32:56 51°20.093 2°36.906 6.4 25 8.7 100070 93
2008-04-29 08:33:01 51°20.094 2°36.908 6.5 55 8.7 100070 93
2008-04-29 08:33:06 51°20.094 2°36.909 10.3 21 8.7 100070 93
2008-04-29 08:33:11 51°20.095 2°36.911 9 51 8.7 100070 93
2008-04-29 08:33:16 51°20.096 2°36.913 8.7 27 8.7 100070 93
2008-04-29 08:33:22 51°20.097 2°36.915 7.6 56 8.7 100070 93
2008-04-29 08:33:26 51°20.098 2°36.916 6.5 24 8.7 100070 93
2008-04-29 08:33:31 51°20.099 2°36.917 5.5 57 8.7 100070 93
2008-04-29 08:33:36 51°20.1 2°36.919 6 25 8.6 100070 93
2008-04-29 08:33:41 51°20.101 2°36.92 4.4 56 8.6 100070 93
2008-04-29 08:33:46 51°20.103 2°36.921 4.6 25 8.6 100070 93
2008-04-29 08:33:51 51°20.104 2°36.922 4.1 54 8.6 100070 93
2008-04-29 08:33:56 51°20.105 2°36.924 3.8 25 8.6 100070 93
2008-04-29 08:34:01 51°20.106 2°36.925 5.8 56 8.6 100070 93
2008-04-29 08:34:06 51°20.107 2°36.926 5.5 25 8.7 100070 93
2008-04-29 08:34:11 51°20.109 2°36.927 5.2 53 8.7 100070 93
2008-04-29 08:34:16 51°20.11 2°36.928 4.2 20 8.8 100070 94
2008-04-29 08:34:22 51°20.112 2°36.929 4.6 56 8.8 100070 94
2008-04-29 08:34:26 51°20.113 2°36.93 6.1 24 8.8 100070 94
2008-04-29 08:34:31 51°20.114 2°36.931 5.8 52 8.8 100070 94
2008-04-29 08:34:36 51°20.115 2°36.932 7 26 8.8 100060 94
2008-04-29 08:34:41 51°20.117 2°36.933 7.4 56 8.8 100060 94
2008-04-29 08:34:46 51°20.118 2°36.934 6.1 27 8.8 100070 94
2008-04-29 08:34:51 51°20.12 2°36.935 6.5 57 8.8 100070 94